When you browse on this site, cookies collect data to enhance your experience and personalize the content and advertising you see.
Visit our Privacy Policy to learn more. By continuing to use the site, you agree to this use of cookies and data.
  • în România
  • Lista ţărilor
  • Pe 7 zile
  • Temperatura apei
  • Hartă satelitară
  • Meteo pe hartă
  • Widget-uri
  • user-avatar
    Intrare

    Meteo pe oră la Bokinskiy

    Astăzi, 24 Martie, Duminică

    Timp Temperatura Precipitaţii Vânt Presiune Umiditate
    00:00 -1°C° 0.1 mm 3 m/s 751 mmHg 95%
    01:00 -1°C° 0 mm 3 m/s 751 mmHg 95%
    02:00 -2°C° 0 mm 3 m/s 751 mmHg 95%
    03:00 -6°C° 0 mm 3 m/s 751 mmHg 92%
    04:00 -7°C° 0 mm 3 m/s 751 mmHg 92%
    05:00 -8°C° 0 mm 3 m/s 751 mmHg 91%
    06:00 -8°C° 0 mm 3 m/s 752 mmHg 91%
    07:00 -7°C° 0 mm 3 m/s 752 mmHg 90%
    08:00 -6°C° 0 mm 3 m/s 751 mmHg 89%
    09:00 -4°C° 0 mm 3 m/s 751 mmHg 89%
    10:00 -3°C° 0 mm 2 m/s 751 mmHg 92%
    11:00 -2°C° 0 mm 2 m/s 751 mmHg 96%
    12:00 +1°C° 0 mm 1 m/s 751 mmHg 99%
    13:00 +1°C° 0 mm 1 m/s 750 mmHg 99%
    14:00 +1°C° 0 mm 1 m/s 750 mmHg 99%
    15:00 +1°C° 0 mm 1 m/s 749 mmHg 100%
    16:00 +1°C° 0 mm 1 m/s 749 mmHg 99%
    17:00 0°C° 0 mm 0 m/s 748 mmHg 98%
    18:00 -1°C° 0 mm 0 m/s 748 mmHg 98%
    19:00 0°C° 0 mm 1 m/s 748 mmHg 98%
    20:00 0°C° 0 mm 1 m/s 747 mmHg 97%
    21:00 -2°C° 0 mm 2 m/s 747 mmHg 97%
    22:00 -2°C° 0 mm 2 m/s 747 mmHg 96%
    23:00 -2°C° 0 mm 2 m/s 746 mmHg 95%

    Mâine, 25 Martie, Luni

    Timp Temperatura Precipitaţii Vânt Presiune Umiditate
    00:00 -2°C° 0 mm 3 m/s 745 mmHg 94%
    01:00 -2°C° 0.1 mm 3 m/s 745 mmHg 94%
    02:00 -2°C° 0.1 mm 3 m/s 745 mmHg 95%
    03:00 -3°C° 0.1 mm 4 m/s 745 mmHg 96%
    04:00 -3°C° 0 mm 4 m/s 744 mmHg 95%
    05:00 -3°C° 0 mm 4 m/s 744 mmHg 95%
    06:00 -4°C° 0 mm 5 m/s 744 mmHg 95%
    07:00 -4°C° 0 mm 5 m/s 744 mmHg 93%
    08:00 -3°C° 0 mm 6 m/s 745 mmHg 92%
    09:00 -3°C° 0 mm 6 m/s 745 mmHg 90%
    10:00 -3°C° 0 mm 6 m/s 745 mmHg 92%
    11:00 -2°C° 0 mm 6 m/s 745 mmHg 95%
    12:00 -2°C° 0 mm 6 m/s 746 mmHg 97%
    13:00 -1°C° 0 mm 5 m/s 746 mmHg 97%
    14:00 -1°C° 0 mm 5 m/s 746 mmHg 97%
    15:00 -1°C° 0 mm 4 m/s 747 mmHg 98%
    16:00 -1°C° 0 mm 4 m/s 747 mmHg 95%
    17:00 -2°C° 0 mm 4 m/s 748 mmHg 92%
    18:00 -1°C° 0 mm 3 m/s 748 mmHg 89%
    19:00 -2°C° 0 mm 3 m/s 748 mmHg 89%
    20:00 -4°C° 0 mm 3 m/s 749 mmHg 89%
    21:00 -5°C° 0 mm 3 m/s 749 mmHg 90%
    22:00 -4°C° 0 mm 2 m/s 749 mmHg 88%
    23:00 -5°C° 0 mm 2 m/s 750 mmHg 87%

    Poimâine, 26 Martie, Marţi

    Timp Temperatura Precipitaţii Vânt Presiune Umiditate
    00:00 -5°C° 0 mm 2 m/s 750 mmHg 86%
    01:00 -5°C° 0 mm 2 m/s 750 mmHg 86%
    02:00 -5°C° 0 mm 2 m/s 750 mmHg 85%
    03:00 -5°C° 0 mm 2 m/s 750 mmHg 85%
    04:00 -5°C° 0 mm 2 m/s 750 mmHg 86%
    05:00 -6°C° 0 mm 3 m/s 750 mmHg 87%
    06:00 -6°C° 0 mm 3 m/s 749 mmHg 87%
    07:00 -4°C° 0 mm 3 m/s 749 mmHg 87%
    08:00 -3°C° 0 mm 4 m/s 749 mmHg 87%
    09:00 -2°C° 0 mm 4 m/s 749 mmHg 87%
    10:00 -1°C° 0.2 mm 5 m/s 748 mmHg 91%
    11:00 -1°C° 0.2 mm 5 m/s 748 mmHg 95%
    12:00 -1°C° 0.2 mm 5 m/s 747 mmHg 99%
    13:00 0°C° 1 mm 5 m/s 747 mmHg 99%
    14:00 0°C° 1 mm 5 m/s 746 mmHg 99%
    15:00 -1°C° 1 mm 6 m/s 746 mmHg 100%
    16:00 0°C° 0 mm 5 m/s 745 mmHg 99%
    17:00 0°C° 0 mm 4 m/s 745 mmHg 99%
    18:00 +1°C° 0 mm 3 m/s 745 mmHg 99%
    19:00 +1°C° 0 mm 3 m/s 745 mmHg 98%
    20:00 0°C° 0 mm 3 m/s 745 mmHg 97%
    21:00 +1°C° 0 mm 2 m/s 746 mmHg 96%
    22:00 0°C° 0 mm 3 m/s 745 mmHg 95%
    23:00 0°C° 0 mm 3 m/s 745 mmHg 94%

    27 Martie, Miercuri

    Timp Temperatura Precipitaţii Vânt Presiune Umiditate
    00:00 0°C° 0 mm 3 m/s 745 mmHg 94%
    01:00 -1°C° 0 mm 3 m/s 745 mmHg 92%
    02:00 -2°C° 0 mm 3 m/s 745 mmHg 91%
    03:00 -4°C° 0 mm 3 m/s 745 mmHg 90%
    04:00 -4°C° 0 mm 3 m/s 745 mmHg 91%
    05:00 -4°C° 0 mm 3 m/s 746 mmHg 92%
    06:00 -4°C° 0 mm 3 m/s 746 mmHg 93%
    07:00 -4°C° 0 mm 3 m/s 746 mmHg 92%
    08:00 -2°C° 0 mm 3 m/s 747 mmHg 92%
    09:00 -2°C° 0 mm 2 m/s 747 mmHg 91%
    10:00 -1°C° 0 mm 2 m/s 747 mmHg 94%
    11:00 -1°C° 0 mm 2 m/s 747 mmHg 96%
    12:00 +1°C° 0 mm 2 m/s 748 mmHg 99%
    13:00 +2°C° 0 mm 1 m/s 748 mmHg 99%
    14:00 +2°C° 0 mm 1 m/s 748 mmHg 98%
    15:00 +1°C° 0 mm 0 m/s 748 mmHg 98%
    16:00 +1°C° 0 mm 1 m/s 748 mmHg 94%
    17:00 +1°C° 0 mm 1 m/s 749 mmHg 90%
    18:00 0°C° 0 mm 1 m/s 749 mmHg 87%
    19:00 -1°C° 0 mm 1 m/s 749 mmHg 86%
    20:00 -4°C° 0 mm 2 m/s 750 mmHg 85%
    21:00 -5°C° 0 mm 3 m/s 750 mmHg 84%
    22:00 -6°C° 0 mm 3 m/s 750 mmHg 84%
    23:00 -6°C° 0 mm 3 m/s 750 mmHg 84%

    28 Martie, Joi

    Timp Temperatura Precipitaţii Vânt Presiune Umiditate
    00:00 -6°C° 0 mm 3 m/s 750 mmHg 85%
    01:00 -6°C° 0 mm 3 m/s 751 mmHg 86%
    02:00 -7°C° 0 mm 4 m/s 751 mmHg 88%
    03:00 -7°C° 0 mm 4 m/s 751 mmHg 90%
    04:00 -6°C° 0 mm 5 m/s 752 mmHg 90%
    05:00 -5°C° 0 mm 5 m/s 752 mmHg 89%
    06:00 -4°C° 0 mm 5 m/s 752 mmHg 89%
    07:00 -4°C° 0 mm 6 m/s 753 mmHg 88%
    08:00 -4°C° 0 mm 6 m/s 753 mmHg 88%
    09:00 -3°C° 0 mm 6 m/s 754 mmHg 87%
    10:00 -3°C° 0 mm 6 m/s 754 mmHg 85%
    11:00 -3°C° 0 mm 6 m/s 755 mmHg 84%
    12:00 -3°C° 0 mm 7 m/s 755 mmHg 83%
    13:00 -3°C° 0 mm 6 m/s 755 mmHg 80%
    14:00 -3°C° 0 mm 6 m/s 755 mmHg 76%
    15:00 -1°C° 0 mm 5 m/s 756 mmHg 73%
    16:00 -2°C° 0 mm 5 m/s 756 mmHg 74%
    17:00 -3°C° 0 mm 4 m/s 756 mmHg 75%
    18:00 -3°C° 0 mm 4 m/s 756 mmHg 76%
    19:00 -4°C° 0 mm 4 m/s 756 mmHg 78%
    20:00 -4°C° 0 mm 4 m/s 756 mmHg 80%
    21:00 -4°C° 0 mm 4 m/s 756 mmHg 82%
    22:00 -4°C° 0 mm 4 m/s 756 mmHg 83%
    23:00 -4°C° 0 mm 5 m/s 755 mmHg 83%

    29 Martie, Vineri

    Timp Temperatura Precipitaţii Vânt Presiune Umiditate
    00:00 -4°C° 0 mm 5 m/s 755 mmHg 84%
    01:00 -4°C° 0 mm 5 m/s 754 mmHg 84%
    02:00 -5°C° 0 mm 5 m/s 754 mmHg 84%
    03:00 -5°C° 0 mm 5 m/s 753 mmHg 85%
    04:00 -5°C° 0 mm 5 m/s 753 mmHg 85%
    05:00 -5°C° 0 mm 5 m/s 752 mmHg 85%
    06:00 -5°C° 0 mm 6 m/s 752 mmHg 85%
    07:00 -4°C° 0 mm 6 m/s 751 mmHg 85%
    08:00 -3°C° 0 mm 7 m/s 750 mmHg 84%
    09:00 -2°C° 0 mm 8 m/s 749 mmHg 84%
    10:00 -2°C° 0.5 mm 7 m/s 748 mmHg 86%
    11:00 -1°C° 0.5 mm 7 m/s 748 mmHg 88%
    12:00 -1°C° 0.5 mm 7 m/s 747 mmHg 90%
    13:00 -1°C° 0.5 mm 6 m/s 746 mmHg 93%
    14:00 -1°C° 0.5 mm 6 m/s 746 mmHg 95%
    15:00 -1°C° 0.5 mm 6 m/s 746 mmHg 97%
    16:00 -1°C° 0.1 mm 6 m/s 746 mmHg 95%
    17:00 -1°C° 0.1 mm 6 m/s 746 mmHg 93%
    18:00 -1°C° 0.1 mm 6 m/s 746 mmHg 91%
    19:00 0°C° 0.1 mm 5 m/s 746 mmHg 91%
    20:00 -1°C° 0.1 mm 5 m/s 747 mmHg 91%
    21:00 -1°C° 0.1 mm 5 m/s 747 mmHg 91%
    22:00 -1°C° 0 mm 5 m/s 748 mmHg 91%
    23:00 -2°C° 0 mm 6 m/s 748 mmHg 91%
    Arată mai mult